Regional Weather Roundup
Issued by NWS

Home | Current Version | Previous Version | Text Only | Print | Product List | Glossary On
Versions: 1 2 3 4 5 6 7 8 9 10 11 12 13 14 15 16 17 18 19 20 21 22 23 24 25 26 27 28 29 30 31 32 33 34 35 36 37 38 39 40 41 42 43 44 45 46 47 48 49 50
000
ASUS43 KMPX 040410
RWRMN
WEATHER ROUNDUP FOR MINNESOTA
NATIONAL WEATHER SERVICE TWIN CITIES/CHANHASSEN MN
1000 PM CST TUE MAR 03 2015


NOTE: "FAIR" INDICATES FEW OR NO CLOUDS BELOW 12,000 FEET WITH NO
SIGNIFICANT WEATHER AND/OR OBSTRUCTIONS TO VISIBILITY. N/A MEANS
CURRENT SKY AND/OR WEATHER CONDITIONS ARE NOT AVAILABLE.

MNZ060>063-068>070-040500-
   Twin Cities Metro

CITY           SKY/WX    TMP DP  RH WIND       PRES   REMARKS
TWIN CITIES    CLEAR      9  -2  61 NW18G26   29.99R WCI -10
ST PAUL        CLEAR     10   1  67 NW18G25   30.00R WCI  -8
CRYSTAL        CLEAR     10  -1  61 W14       29.98R WCI  -6
BLAINE         CLEAR     10   1  67 W10G21    29.97R WCI  -3
LAKEVILLE      CLEAR      9   0  66 W15G26    29.99R WCI  -8
EDEN PRAIRIE   CLEAR      9   0  67 NW14      29.99R WCI  -7
SOUTH ST PAUL  CLEAR     12   0  60 NW10G20   29.99R WCI  -2
LAKE ELMO      FAIR      12   3  67 NW13G18   29.98R WCI  -3
$$
MNZ001>005-007-008-013>017-022>024-027-028-040500-
   Northwest Minnesota

CITY           SKY/WX    TMP DP  RH WIND       PRES   REMARKS
BEMIDJI        PTCLDY    -2  -9  73 W12       29.91R WCI -20
HALLOCK        PTCLDY    -2  -9  71 NW10      29.97R WCI -19
ROSEAU         CLEAR     -2  -9  71 W8        29.92R WCI -17
WARROAD        FAIR      -2  -9  71 W7        29.90R WCI -16
THIEF RVR FALL PTCLDY     0  -6  78 W14       29.95R WCI -19
CROOKSTON      PTCLDY     1  -8  66 NW15G23   30.01S WCI -18
FOSSTON        CLOUDY    -2  -9  71 W14       29.96R WCI -21
DETROIT LAKES  CLEAR      1  -6  71 NW20      29.98R WCI -20
MOORHEAD       CLEAR      3  -4  72 NW12      30.06R WCI -13
PARK RAPIDS    CLOUDY     1  -7  68 NW17      29.92R WCI -19
MAHNOMEN       MOCLDY    -1  -8  72 NW14      29.97S WCI -19
$$
MNZ006-009>011-018-025>026-040500-
   North Central Minnesota

CITY           SKY/WX    TMP DP  RH WIND       PRES   REMARKS
BAUDETTE       MOCLDY    -2  -8  76 W10       29.85R WCI -19
FLAG ISLAND    PTCLDY    -4 -13  65 NW15      29.87R WCI -25
INTL FALLS     MOCLDY    -1  -9  68 W9G21     29.83R WCI -16
WASKISH        CLEAR     -2  -8  78 W12       29.89R WCI -20
BIG FORK       FAIR       0  -9  65 W8        29.86R WCI -15
LONGVILLE      CLEAR      0  -8  71 W12G18    29.91R WCI -18
GRAND RAPIDS   CLOUDY     0  -9  65 W17G25    29.85R WCI -21
CRANE LAKE     CLEAR      0  -8  71 W7G17     29.84R WCI -13
ORR            FAIR       0  -8  71 W12G17    29.79R WCI -18
COOK           CLEAR      0  -8  71 W13       29.82R WCI -18
WALKER         CLOUDY     0  -9  67 W13G22    29.91R WCI -18
$$
MNZ012-019>021-037-040500-
   Northeast Minnesota

CITY           SKY/WX    TMP DP  RH WIND       PRES   REMARKS
DULUTH         CLEAR      5  -5  63 W14       29.79R WCI -12
ELY            LGT SNOW   1  -2  85 W5        29.77R WCI  -8
HIBBING        CLEAR      2 -10  57 W15G21    29.83R WCI -17
EVELETH        LGT SNOW   3  -2  78 W12G18    29.83R WCI -13
DULUTH HARBOR  CLEAR      9  -2  61 W26G33    29.88R WCI -13
TWO HARBORS    CLEAR      9  -2  61 W10G21    29.78R WCI  -6
SILVER BAY     FAIR       7  -6  56 W13G23    29.76R WCI  -9
GRAND MARAIS     N/A      8  -4  58 W9G23     29.75R WCI  -5
G MARAIS ARPRT CLEAR      1  -9  60 W9G26     29.63R WCI -14
$$
MNZ029>031-032-039>041-046>048-054>057-064-040500-
   West Central Minnesota

CITY           SKY/WX    TMP DP  RH WIND       PRES   REMARKS
FERGUS FALLS   CLEAR      1  -8  66 NW20      30.07R WCI -20
WHEATON        CLEAR      1  -8  66 W10       30.09R WCI -14
MORRIS         CLEAR      1  -6  71 NW16      30.03S WCI -18
ALEXANDRIA     CLEAR      1  -7  68 NW17G26   29.98S WCI -19
ELBOW LAKE     MOCLDY     2  -4  75 NW16G22   30.02S WCI -17
WADENA         MOCLDY     0  -6  78 NW14G23   29.96R WCI -19
GLENWOOD       CLEAR      1  -6  71 NW20      29.99S WCI -20
APPLETON       CLEAR      5  -4  66 NW16      30.07S WCI -14
BENSON         CLEAR      3  -4  72 N13       30.04S WCI -14
ORTONVILLE       N/A      3  -6  66 NW9       30.06S WCI -11
MADISON        CLEAR      5  -2  72 NW8       30.09R WCI  -8
WILLMAR        FAIR       7   0  72 NW16      30.03S WCI -11
$$
MNZ033>034-036-042>043-049>051-058-059-040500-
   Central Minnesota

CITY           SKY/WX    TMP DP  RH WIND       PRES   REMARKS
ST CLOUD       PTCLDY     6  -4  63 W17       29.98R WCI -13
SAUK CENTRE    FAIR       2  -6  69 NW17      29.99R WCI -18
PAYNESVILLE    PTCLDY     2  -5  72 W17       30.01R WCI -18
AITKIN         CLEAR      5  -6  61 W7        29.90R WCI  -7
PINE RIVER     MOCLDY     1  -2  85 W9        29.95R HAZE    WCI -14
BRAINERD       PTCLDY     3  -4  72 W13       29.93R WCI -14
STAPLES        PTCLDY     0  -8  71 W14G20    29.95R WCI -19
LITTLE FALLS   CLEAR      5  -4  66 W12G17    29.98R WCI -11
LITCHFIELD     CLEAR      7   0  72 NW13G21   30.00S WCI  -9
BUFFALO        CLEAR      8   0  70 W10G18    30.00S WCI  -7
MAPLE LAKE     PTCLDY     8   2  76 W13G18    30.00R WCI  -8
$$
MNZ037-044-045-052-053-040500-
   East Central Minnesota

CITY           SKY/WX    TMP DP  RH WIND       PRES   REMARKS
PRINCETON      CLEAR      7   0  72 W10G17    29.97R WCI  -8
MORA           CLEAR      7  -2  66 W9G17     29.96R WCI  -7
CAMBRIDGE      CLEAR      9  -2  61 W13G18    29.94R WCI  -7
RUSH CITY      CLEAR      6  -3  65 W7        29.96R WCI  -5
MOOSE LAKE     CLEAR      7  -6  56 NW9       29.88R WCI  -7
HINCKLEY       FAIR       9  -4  56 W8        29.93R WCI  -4
CLOQUET        CLEAR      5  -8  56 W13G18    29.84R WCI -12
MCGREGOR       CLEAR      5  -6  61 NW8       29.90R WCI  -8
$$
MNZ071>073-080-081-089-090-097-098-040500-
   Southwest Minnesota

CITY           SKY/WX    TMP DP  RH WIND       PRES   REMARKS
MONTEVIDEO     CLEAR      5   1  85 N14       30.08R WCI -12
GRANITE FALLS  CLEAR      6  -1  71 NW15      30.08R WCI -11
CANBY          CLEAR      5  -2  71 NW12      30.09R WCI -11
MARSHALL       FAIR       7  -4  61 NW17      30.07R WCI -12
REDWOOD FALLS  CLEAR      9  -1  64 NW18G24   30.05R WCI -10
OLIVIA         CLEAR      9   3  78 NW18G28   30.03R WCI -10
PIPESTONE      PTCLDY     7   0  72 NW10      30.03R WCI  -8
WINDOM         PTCLDY     9   1  72 NW12      30.03R WCI  -6
WORTHINGTON    PTCLDY     9   0  66 NW13      30.05R WCI  -7
JACKSON        PTCLDY    10   1  67 NW16      30.03S WCI  -7
TRACY          CLEAR      9   1  70 NW17      30.06R WCI  -9
SLAYTON        PTCLDY     7  -2  66 NW17      30.03R WCI -11
$$
MNZ065>067-074>077-082>085-091>093-040500-
   South Central Minnesota

CITY           SKY/WX    TMP DP  RH WIND       PRES   REMARKS
MANKATO        CLEAR      9   0  66 NW23      30.01R WCI -12
NEW ULM        PTCLDY     9   1  72 NW14      30.04R WCI  -8
ST JAMES       PTCLDY    10   1  67 NW15G22   30.06R WCI  -6
FAIRMONT       FAIR      10   1  67 W15       30.02R WCI  -6
GLENCOE        CLEAR      8   2  75 W13       30.01R WCI  -7
FARIBAULT      CLEAR      9   1  72 W13G21    30.00R WCI  -7
OWATONNA       CLEAR      9   1  72 NW17      29.99R WCI -10
WASECA         CLEAR      9   1  72 NW18      30.01S WCI -10
ALBERT LEA     CLEAR     10   3  72 NW13G20   29.99R WCI  -5
$$
MNZ078>079-086>088-094>096-040500-
   Southeast Minnesota

CITY           SKY/WX    TMP DP  RH WIND       PRES   REMARKS
ROCHESTER      PTCLDY     9   3  77 NW21G30   29.94R WCI -11
RED WING       PTCLDY    12   1  62 W13       29.96R WCI  -3
STANTON        CLEAR     11   2  66 NW15G21   29.98R WCI  -5
DODGE CENTER   PTCLDY     9   3  78 NW17G24   29.95R WCI -10
WINONA         CLEAR     18   9  68 NW16G22   29.96R WCI   3
AUSTIN         CLEAR      9   1  72 NW18G25   29.97R WCI -10
PRESTON        MOCLDY    10   5  82 NW20G29   29.94R FOG     WCI  -9
$$
ABBREVIATIONS USED IN REMARKS
   TC - TEMPERATURES IN CELSIUS
  WCI - WIND CHILL INDEX
   HX - HEAT INDEX
  VSB - VISIBILITY
$$


USA.gov is the U.S. government's official web portal to all federal, state and local government web resources and services.